Home > Weather > Rafsanjan > Past weeks

Flag for Iran Past Weather in Rafsanjan, Iran — Yesterday and Last 2 Weeks

Now
59 °F

Clear.


Feels Like: 59 °F
Forecast: 65 / 98 °F
Wind: 5 mph from Southeast

Location: Kerman Airport

Current Time: May 29, 2016 at 6:42:43 AM

Latest Report: May 29, 2016 at 5:30 AM


Visibility: 10 mi

Pressure: 30.07 "Hg (25.12 "Hg at 1515m altitude)

Humidity: 23%

Dew Point: 21 °F

Location of RafsanjanLocation

Past Weather in Rafsanjan — Graph

°F

Rafsanjan Temperature Yesterday

Maximum temperature yesterday: 95 °F (at 2:30 PM)
Minimum temperature yesterday: 61 °F (at 5:30 AM)
Average temperature yesterday: 81 °F

High & Low Weather Summary for the Past Weeks

 TemperatureHumidityPressure
High97 °F (May 17, 3:20 PM)68% (May 19, 6:30 AM)30.21 "Hg (May 19, 6:30 AM)
Low52 °F (May 14, 5:30 AM)1% (May 25, 9:30 PM)29.83 "Hg (May 25, 4:30 PM)
Average79 °F17%30.04 "Hg
* Reported May 14 5:30 AM — May 29 5:30 AM, Rafsanjan, Weather by CustomWeather, © 2016

Note: Actual official high and low records may vary slightly from our data, if they occured in-between our weather recording intervals... More about our weather records

Advertising

Rafsanjan Weather History for the Previous 24 Hours

Scroll right to see more
 ConditionsComfort  
Time TempWeatherWind HumidityBarometerVisibility
5:30 AM
Sun, May 29
59 °FClear.5 mph23%30.07 "Hg10 mi
3:30 AM66 °FClear.7 mph18%30.04 "Hg10 mi
2:30 AM66 °FClear.7 mph17%30.04 "Hg10 mi
1:30 AM70 °FClear.No wind15%30.07 "Hg10 mi
12:30 AM70 °FClear.5 mph12%30.07 "Hg10 mi
11:30 PM
Sat, May 28
72 °FClear.5 mph11%30.09 "Hg10 mi
10:30 PM81 °FClear.7 mph7%30.07 "Hg10 mi
9:30 PM82 °FClear.12 mph7%30.07 "Hg10 mi
8:30 PM84 °FSunny.14 mph6%30.04 "Hg10 mi
7:30 PM86 °FPassing clouds.14 mph7%30.04 "HgN/A
6:30 PM90 °FPassing clouds.16 mph5%30.01 "HgN/A
5:30 PM95 °FPassing clouds.12 mph3%30.01 "HgN/A
4:30 PM95 °FPassing clouds.9 mph9%30.01 "HgN/A
3:30 PM95 °FPassing clouds.9 mph9%30.04 "HgN/A
2:30 PM95 °FPassing clouds.12 mph9%30.04 "HgN/A
1:30 PM93 °FPassing clouds.5 mph11%30.07 "HgN/A
12:30 PM93 °FPassing clouds.No wind10%30.09 "HgN/A
11:30 AM90 °FPassing clouds.5 mph9%30.09 "HgN/A
10:30 AM90 °FSunny.5 mph8%30.12 "Hg10 mi
9:30 AM86 °FSunny.5 mph9%30.12 "Hg10 mi
8:30 AM82 °FSunny.5 mph12%30.12 "Hg10 mi
7:30 AM68 °FSunny.7 mph18%30.12 "Hg10 mi
6:30 AM61 °FClear.5 mph23%30.09 "Hg10 mi
Weather by CustomWeather, © 2016

See weather overviewHow to use our weather pages